CAPE
0 0 0 0 0 0 0 0 0 0 0 0 0 0 0 0 0 0 0 0 0 0 0 0 0 0 0 0 0 0 0 0 0 0 0 0 0 0 2 1 0 2 30 30
0 0 0 0 0 0 0 0 0 0 0 0 0 0 0 0 0 0 0 0 0 0 0 0 0 0 0 0 0 0 0 0 0 0 0 0 1 1 3 1 0 3 1 4
0 0 0 0 0 0 0 0 0 0 0 0 0 0 0 0 0 0 0 0 0 0 0 0 0 0 0 0 0 0 0 0 0 0 0 0 0 0 0 0 0 2 2 0
0 0 0 0 0 0 0 0 0 0 0 0 0 0 0 0 0 0 0 0 0 0 0 0 0 0 0 0 0 0 0 0 0 0 0 0 0 3 3 1 1 2 3 1
0 0 0 0 0 0 0 0 0 0 0 0 0 0 0 0 0 0 0 0 0 0 0 0 0 0 0 0 0 0 0 0 0 0 0 0 0 0 1 0 0 0 1 2
0 0 0 0 0 0 0 0 0 0 0 0 0 0 0 0 0 0 0 0 0 0 0 0 0 0 0 0 0 0 0 0 0 0 0 0 0 0 0 0 0 0 1 2
0 0 0 0 0 0 0 0 0 0 0 0 0 0 0 0 0 0 0 0 0 0 0 0 0 0 0 0 0 0 0 0 0 0 0 0 0 0 0 0 0 0 2 3
0 0 0 0 0 0 0 0 0 0 0 0 0 0 0 0 0 0 0 0 0 0 0 0 0 0 0 0 0 0 0 0 0 0 0 0 0 0 0 0 0 0 0 0
0 0 0 0 0 0 0 0 0 0 0 0 0 0 0 0 0 0 0 0 0 0 0 0 0 0 0 0 0 0 0 0 0 0 0 0 0 0 0 0 0 0 0 0
0 0 0 0 0 0 0 0 0 0 0 0 0 0 0 0 0 0 0 0 0 0 0 0 0 0 0 0 0 0 0 0 0 0 0 0 0 0 0 0 0 0 0 0
0 0 0 0 0 0 0 0 0 0 0 0 0 0 0 0 0 0 0 0 0 0 0 0 0 0 0 0 0 0 0 0 0 0 0 0 0 0 0 0 0 0 0 0
0 0 0 0 0 0 0 0 0 0 0 0 0 0 0 0 0 0 0 0 0 0 0 0 0 0 0 0 0 0 0 0 0 0 0 0 0 0 0 0 0 0 0 0
0 0 0 0 0 0 0 0 0 0 0 0 0 0 0 0 0 0 0 0 0 0 0 0 0 0 0 0 0 0 0 0 0 0 0 0 0 0 1 0 0 0 0 0
0 0 0 0 0 0 0 0 0 0 0 0 0 0 0 0 0 0 0 0 0 0 0 0 0 0 0 0 0 0 0 0 0 0 0 0 0 0 1 1 0 0 0 0
0 0 0 0 0 0 0 0 0 0 0 0 0 0 0 0 0 0 0 0 0 0 0 0 0 0 0 0 0 0 0 0 0 0 0 0 0 0 0 0 1 1 0 0
0 0 0 0 0 0 0 0 0 0 0 0 0 0 0 0 0 0 0 0 0 0 0 0 0 0 0 0 0 0 0 0 0 0 0 0 0 0 0 0 0 1 1 1
0 0 0 0 0 0 0 0 0 0 0 0 0 0 0 0 0 0 0 0 0 0 0 0 0 0 0 0 0 0 0 0 0 0 0 0 0 0 0 0 0 0 1 1
0 0 0 0 0 0 0 0 0 0 0 0 0 0 0 0 0 0 0 0 0 0 0 0 0 0 0 0 0 0 0 0 0 0 0 0 0 0 0 0 0 0 0 0
0 0 0 0 0 0 0 0 0 0 0 0 0 0 0 0 0 0 0 0 0 0 0 0 0 0 0 0 0 0 0 0 0 0 0 0 0 0 0 0 0 0 0 0
0 0 0 0 0 0 0 0 0 0 0 0 0 0 0 0 0 0 0 0 0 0 0 0 0 0 0 0 0 0 0 0 0 0 0 0 0 0 0 0 0 0 0 0
1 0 0 0 0 0 0 0 0 0 0 0 0 0 0 0 0 0 0 0 0 0 0 0 0 0 0 0 0 0 0 0 0 0 0 0 0 0 0 0 0 0 0 0
0 0 0 0 0 0 0 0 0 0 0 0 0 0 0 0 0 0 0 0 0 0 0 0 0 0 0 0 0 0 0 0 0 0 0 0 0 0 0 0 0 0 0 0
0 0 0 0 0 0 0 0 0 0 0 0 0 0 0 0 0 0 0 0 0 0 0 0 0 0 0 0 0 0 0 0 0 0 0 0 0 0 0 0 0 0 0 0
0 0 0 0 0 0 0 0 0 0 0 0 0 0 0 0 0 0 0 0 0 0 0 0 0 0 0 0 0 0 0 0 0 0 0 0 0 0 0 0 0 0 0 0
0 0 0 0 0 0 0 0 0 0 0 0 0 0 0 0 0 0 0 0 0 0 0 0 0 0 0 0 0 0 0 0 0 0 0 0 0 0 0 0 0 0 0 0
0 0 0 0 0 0 0 0 0 0 0 0 0 0 0 0 0 0 0 0 0 0 0 0 0 0 0 0 0 0 0 0 0 0 0 0 0 0 0 0 0 0 0 0
CIN
-0 -0 -0 -0 -0 -0 -0 -0 -0 -0 -0 -0 -0 -0 -0 -0 -0 -0 -0 -0 -0 -0 -0 -0 -0 -0 -0 -0 -0 -0 -0 -0 -0 -0 -0 -0 -0 -0 -0 -0 -0 -0 -0 -7
-0 -0 -0 -0 -0 -0 -0 -0 -0 -0 -0 -0 -0 -0 -0 -0 -0 -0 -0 -0 -0 -0 -0 -0 -0 -0 -0 -0 -0 -0 -0 -0 -0 -0 -0 -0 -0 -0 -0 -0 -0 -0 -0 -10
-0 -0 -0 -0 -0 -0 -0 -0 -0 -0 -0 -0 -0 -0 -0 -0 -0 -0 -0 -0 -0 -0 -0 -0 -0 -0 -0 -0 -0 -0 -0 -0 -0 -0 -0 -0 -0 -0 -0 -0 -0 -0 -0 -0
-0 -0 -0 -0 -0 -0 -0 -0 -0 -0 -0 -0 -0 -0 -0 -0 -0 -0 -0 -0 -0 -0 -0 -0 -0 -0 -0 -0 -0 -0 -0 -0 -0 -0 -0 -0 -0 -0 -0 -0 -0 -0 -0 -0
-0 -0 -0 -0 -0 -0 -0 -0 -0 -0 -0 -0 -0 -0 -0 -0 -0 -0 -0 -0 -0 -0 -0 -0 -0 -0 -0 -0 -0 -0 -0 -0 -0 -0 -0 -0 -0 -0 -0 -0 -0 -0 -0 -0
-0 -0 -0 -0 -0 -0 -0 -0 -0 -0 -0 -0 -0 -0 -0 -0 -0 -0 -0 -0 -0 -0 -0 -0 -0 -0 -0 -0 -0 -0 -0 -0 -0 -0 -0 -0 -0 -0 -0 -0 -0 -0 -0 -0
-0 -0 -0 -0 -0 -0 -0 -0 -0 -0 -0 -0 -0 -0 -0 -0 -0 -0 -0 -0 -0 -0 -0 -0 -0 -0 -0 -0 -0 -0 -0 -0 -0 -0 -0 -0 -0 -0 -0 -0 -0 -0 -0 -0
-0 -0 -0 -0 -0 -0 -0 -0 -0 -0 -0 -0 -0 -0 -0 -0 -0 -0 -0 -0 -0 -0 -0 -0 -0 -0 -0 -0 -0 -0 -0 -0 -0 -0 -0 -0 -0 -0 -0 -0 -0 -0 -0 -0
-0 -0 -0 -0 -0 -0 -0 -0 -0 -0 -0 -0 -0 -0 -0 -0 -0 -0 -0 -0 -0 -0 -0 -0 -0 -0 -0 -0 -0 -0 -0 -0 -0 -0 -0 -0 -0 -0 -0 -0 -0 -0 -0 -0
-0 -0 -0 -0 -0 -0 -0 -0 -0 -0 -0 -0 -0 -0 -0 -0 -0 -0 -0 -0 -0 -0 -0 -0 -0 -0 -0 -0 -0 -0 -0 -0 -0 -0 -0 -0 -0 -0 -0 -0 -0 -0 -0 -0
-0 -0 -0 -0 -0 -0 -0 -0 -0 -0 -0 -0 -0 -0 -0 -0 -0 -0 -0 -0 -0 -0 -0 -0 -0 -0 -0 -0 -0 -0 -0 -0 -0 -0 -0 -0 -0 -0 -0 -0 -0 -0 -0 -0
-0 -0 -0 -0 -0 -0 -0 -0 -0 -0 -0 -0 -0 -0 -0 -0 -0 -0 -0 -0 -0 -0 -0 -0 -0 -0 -0 -0 -0 -0 -0 -0 -0 -0 -0 -0 -0 -0 -0 -0 -0 -0 -0 -0
-0 -0 -0 -0 -0 -0 -0 -0 -0 -0 -0 -0 -0 -0 -0 -0 -0 -0 -0 -0 -0 -0 -0 -0 -0 -0 -0 -0 -0 -0 -0 -0 -0 -0 -0 -0 -0 -0 -0 -0 -0 -0 -0 -0
-0 -0 -0 -0 -0 -0 -0 -0 -0 -0 -0 -0 -0 -0 -0 -0 -0 -0 -0 -0 -0 -0 -0 -0 -0 -0 -0 -0 -0 -0 -0 -0 -0 -0 -0 -0 -0 -0 -0 -0 -0 -0 -0 -0
-0 -0 -0 -0 -0 -0 -0 -0 -0 -0 -0 -0 -0 -0 -0 -0 -0 -0 -0 -0 -0 -0 -0 -0 -0 -0 -0 -0 -0 -0 -0 -0 -0 -0 -0 -0 -0 -0 -0 -0 -0 -0 -0 -0
-0 -0 -0 -0 -0 -0 -0 -0 -0 -0 -0 -0 -0 -0 -0 -0 -0 -0 -0 -0 -0 -0 -0 -0 -0 -0 -0 -0 -0 -0 -0 -0 -0 -0 -0 -0 -0 -0 -0 -0 -0 -0 -0 -0
-0 -0 -0 -0 -0 -0 -0 -0 -0 -0 -0 -0 -0 -0 -0 -0 -0 -0 -0 -0 -0 -0 -0 -0 -0 -0 -0 -0 -0 -0 -0 -0 -0 -0 -0 -0 -0 -0 -0 -0 -0 -0 -0 -0
-0 -0 -0 -0 -0 -0 -0 -0 -0 -0 -0 -0 -0 -0 -0 -0 -0 -0 -0 -0 -0 -0 -0 -0 -0 -0 -0 -0 -0 -0 -0 -0 -0 -0 -0 -0 -0 -0 -0 -0 -0 -0 -0 -0
-0 -0 -0 -0 -0 -0 -0 -0 -0 -0 -0 -0 -0 -0 -0 -0 -0 -0 -0 -0 -0 -0 -0 -0 -0 -0 -0 -0 -0 -0 -0 -0 -0 -0 -0 -0 -0 -0 -0 -0 -0 -0 -0 -0
-0 -0 -0 -0 -0 -0 -0 -0 -0 -0 -0 -0 -0 -0 -0 -0 -0 -0 -0 -0 -0 -0 -0 -0 -0 -0 -0 -0 -0 -0 -0 -0 -0 -0 -0 -0 -0 -0 -0 -0 -0 -0 -0 -0
-0 -0 -0 -0 -0 -0 -0 -0 -0 -0 -0 -0 -0 -0 -0 -0 -0 -0 -0 -0 -0 -0 -0 -0 -0 -0 -0 -0 -0 -0 -0 -0 -0 -0 -0 -0 -0 -0 -0 -0 -0 -0 -0 -0
-0 -0 -0 -0 -0 -0 -0 -0 -0 -0 -0 -0 -0 -0 -0 -0 -0 -0 -0 -0 -0 -0 -0 -0 -0 -0 -0 -0 -0 -0 -0 -0 -0 -0 -0 -0 -0 -0 -0 -0 -0 -0 -0 -0
-0 -0 -0 -0 -0 -0 -0 -0 -0 -0 -0 -0 -0 -0 -0 -0 -0 -0 -0 -0 -0 -0 -0 -0 -0 -0 -0 -0 -0 -0 -0 -0 -0 -0 -0 -0 -0 -0 -0 -0 -0 -0 -0 -0
-0 -0 -0 -0 -0 -0 -0 -0 -0 -0 -0 -0 -0 -0 -0 -0 -0 -0 -0 -0 -0 -0 -0 -0 -0 -0 -0 -0 -0 -0 -0 -0 -0 -0 -0 -0 -0 -0 -0 -0 -0 -0 -0 -0
-0 -0 -0 -0 -0 -0 -0 -0 -0 -0 -0 -0 -0 -0 -0 -0 -0 -0 -0 -0 -0 -0 -0 -0 -0 -0 -0 -0 -0 -0 -0 -0 -0 -0 -0 -0 -0 -0 -0 -0 -0 -0 -0 -0
-0 -0 -0 -0 -0 -0 -0 -0 -0 -0 -0 -0 -0 -0 -0 -0 -0 -0 -0 -0 -0 -0 -0 -0 -0 -0 -0 -0 -0 -0 -0 -0 -0 -0 -0 -0 -0 -0 -0 -0 -0 -0 -0 -0
Wind_Speed
19 18 19 20 20 19 17 19 14 19 19 20 15 14 19 20 20 18 17 15 13 13 16 18 18 19 19 18 20 27 28 27 25 24 24 23 23 24 23 21 20 20 17 17
18 19 18 19 19 18 18 19 21 19 20 18 15 9 13 17 19 19 19 17 16 16 15 16 19 21 20 19 19 23 26 26 26 25 24 23 24 23 22 20 19 17 9 13
17 18 18 19 19 21 17 20 21 19 21 12 14 14 15 17 18 17 17 17 16 18 17 16 18 20 21 21 19 14 15 16 24 24 23 22 19 19 19 20 20 19 14 12
18 17 18 20 20 20 21 20 22 22 24 17 21 19 15 17 19 17 18 19 19 19 18 18 18 19 21 20 19 14 13 14 21 22 21 20 19 19 21 21 20 20 18 15
18 18 19 21 19 19 19 22 22 21 18 18 16 16 17 18 20 20 20 19 18 19 19 19 20 19 21 20 18 19 14 14 17 21 20 19 19 19 20 19 20 19 20 19
17 18 19 19 19 18 20 21 16 18 17 17 16 17 17 20 21 20 20 19 19 19 20 19 19 18 20 22 20 19 18 18 14 20 19 18 18 18 17 18 19 20 20 20
18 18 19 19 20 18 19 23 23 21 19 16 17 15 11 19 19 19 19 20 20 21 21 22 21 20 20 19 17 17 15 16 14 9 17 16 16 16 15 16 18 20 21 18
19 20 18 19 19 20 21 20 20 20 20 18 17 12 16 19 19 18 18 19 20 19 21 22 23 21 18 12 17 16 16 15 16 13 15 15 16 16 15 16 16 18 20 20
18 18 16 18 20 19 19 19 18 19 19 20 14 13 12 16 16 17 18 19 20 22 22 22 23 20 16 15 16 17 16 16 17 15 8 14 15 15 16 17 17 17 17 20
17 21 17 17 18 18 18 16 19 19 20 19 18 16 13 18 16 15 17 19 22 23 22 21 22 21 18 17 16 17 17 16 17 17 12 12 16 14 14 15 15 16 16 16
16 19 20 18 16 16 16 17 16 17 17 17 20 17 18 19 18 16 17 19 20 21 22 21 21 22 19 17 16 17 16 17 17 17 18 6 8 12 12 14 16 16 16 16
16 18 21 21 18 18 17 16 12 15 15 16 18 15 16 18 20 16 15 17 18 19 20 18 19 20 20 19 18 17 18 17 17 16 16 17 16 10 11 13 15 16 16 14
15 19 22 21 19 18 16 14 13 14 15 13 17 16 15 14 17 12 10 12 15 14 15 17 16 18 18 20 19 19 19 19 18 19 17 15 16 15 9 12 13 14 14 13
16 20 21 22 20 17 18 15 10 12 17 14 13 13 15 6 6 8 6 7 9 10 10 13 15 17 17 18 19 20 20 19 19 20 20 20 17 13 13 15 17 14 12 11
18 24 24 26 23 21 21 19 12 9 12 11 27 9 21 18 12 14 9 2 4 6 10 11 12 14 16 18 18 19 20 20 20 22 23 22 20 18 15 9 9 22 18 14
20 25 26 30 25 24 26 19 14 11 14 13 22 36 36 27 14 20 14 7 7 9 10 11 13 14 16 17 18 18 19 20 20 21 22 22 23 24 25 19 12 10 12 12
20 21 25 30 24 27 31 13 12 14 14 12 12 15 23 19 22 20 14 10 9 9 9 10 12 14 16 18 19 20 21 21 21 22 22 23 23 23 23 24 19 16 15 15
19 20 24 30 27 27 22 18 17 11 13 8 13 13 16 20 21 19 13 10 7 7 8 9 11 13 14 16 18 19 20 20 20 20 21 21 22 24 24 23 23 24 20 16
25 21 25 26 29 33 35 23 20 19 27 8 8 12 19 17 22 21 9 3 5 6 7 8 9 11 13 14 16 17 17 18 18 19 19 20 20 22 23 24 23 21 22 22
25 25 24 24 28 29 24 19 17 18 27 17 10 20 19 12 15 13 15 5 1 5 7 7 8 9 11 11 13 14 14 15 15 16 17 18 19 20 20 21 22 22 22 22
24 24 25 26 30 33 30 20 18 27 25 21 20 20 15 11 12 16 15 13 5 4 6 7 7 7 8 10 11 10 11 12 13 14 15 16 17 17 18 18 19 20 21 21
25 25 28 28 32 41 19 18 26 26 22 21 21 20 14 9 15 16 13 10 7 5 6 6 6 6 6 8 9 8 8 9 10 11 11 12 13 14 15 15 16 16 16 17
34 30 30 26 28 24 16 15 16 21 22 20 20 19 15 11 9 13 11 10 9 7 6 6 4 4 5 6 6 7 8 7 8 7 7 8 9 10 11 12 12 12 12 12
31 27 33 30 30 28 29 26 22 21 22 20 19 19 15 16 13 8 11 12 10 9 9 7 5 3 1 2 4 5 4 5 5 5 5 6 5 5 7 7 8 9 9 8
28 22 29 35 34 30 33 30 28 27 26 25 23 22 21 18 18 15 12 11 13 12 11 10 8 6 4 4 1 0 2 4 3 3 3 2 2 2 2 4 5 4 4 6
27 27 27 33 25 27 32 31 28 27 28 28 25 25 24 20 21 20 18 16 15 16 15 13 13 13 11 10 9 8 6 4 3 3 4 4 3 4 4 3 3 5 8 10
Wind_Direction
335 344 341 344 350 357 360 360 19 10 12 15 29 23 23 29 31 32 33 35 34 32 32 21 25 24 23 21 10 336 317 315 306 300 293 291 288 279 278 283 292 279 244 238
332 333 336 340 350 356 352 353 357 8 13 14 20 11 24 34 34 35 34 35 35 33 32 33 25 24 27 28 23 359 331 321 316 310 296 292 286 274 272 280 284 276 254 236
333 334 335 333 344 343 351 347 353 5 3 20 18 27 37 36 35 40 39 39 40 37 36 34 31 25 29 32 33 43 36 12 320 311 304 295 287 280 268 266 274 268 264 256
333 334 330 330 337 346 337 342 346 356 360 16 19 19 33 36 34 39 40 41 38 39 39 38 37 31 28 35 39 52 60 45 326 296 316 302 279 277 262 254 268 265 263 263
331 328 327 327 337 346 342 337 340 351 5 10 27 27 31 36 30 39 38 39 41 39 39 36 37 36 31 36 45 42 57 60 38 312 306 297 272 276 261 267 262 263 258 262
332 330 327 331 336 345 344 343 353 357 7 8 25 26 31 31 32 37 43 43 42 40 38 38 41 41 38 34 45 47 45 44 63 310 309 284 261 266 263 266 269 269 268 260
334 327 326 332 332 344 347 336 331 341 356 7 17 22 34 29 39 42 42 42 42 41 40 39 38 40 39 44 55 60 70 71 83 129 304 286 264 262 263 269 271 267 260 264
329 327 330 326 331 333 336 340 335 338 347 354 4 28 33 31 38 44 48 45 43 44 44 42 42 44 52 76 67 68 75 84 87 105 305 282 272 272 278 278 275 272 266 266
329 324 338 330 327 333 337 336 342 337 346 351 14 27 33 31 40 48 47 48 44 43 45 45 47 56 74 77 74 75 81 90 86 102 86 297 294 290 282 284 277 284 283 261
325 318 329 334 329 330 335 344 335 337 337 346 356 9 29 29 41 51 47 48 45 44 47 50 52 61 76 78 79 79 81 91 96 94 134 317 328 298 281 272 273 274 273 272
325 317 318 326 328 331 335 339 338 337 339 341 345 3 12 21 36 46 46 45 45 46 48 53 57 60 74 79 81 82 86 90 101 100 99 180 212 282 249 233 245 256 266 278
318 317 313 313 322 321 323 332 343 335 340 336 338 351 7 16 21 40 45 43 48 50 52 60 64 66 71 77 82 83 87 94 100 106 113 106 107 255 204 235 250 252 251 265
311 311 310 315 318 320 322 328 331 335 337 329 328 340 4 13 14 37 49 47 49 54 58 64 71 72 76 78 81 85 88 93 98 100 107 115 114 120 153 284 280 284 288 287
311 304 301 304 316 325 318 325 325 324 322 326 309 257 248 251 1 26 44 53 50 59 81 77 79 79 82 85 86 88 91 95 98 97 99 102 110 127 134 129 44 351 338 328
300 298 298 297 305 309 310 311 310 294 305 301 309 281 237 329 334 247 242 21 64 78 93 99 96 91 88 90 95 99 98 99 100 92 88 93 99 107 125 163 182 86 48 30
297 297 297 294 304 305 303 305 299 270 297 258 249 250 255 246 335 338 1 52 94 86 101 97 99 96 94 95 97 106 107 105 104 101 97 94 86 73 60 10 343 335 354 360
293 300 295 292 304 304 299 305 286 300 307 305 298 253 311 317 316 324 354 26 54 80 77 94 100 98 88 94 97 99 99 103 105 102 98 97 96 97 98 64 23 11 8 18
288 294 293 290 297 295 308 324 324 308 311 263 295 232 313 310 311 318 339 3 36 63 65 78 95 91 92 87 88 91 92 94 96 97 97 98 99 95 98 105 105 95 66 28
283 287 293 291 286 294 290 308 312 312 307 314 241 292 310 310 305 301 325 349 17 64 65 66 81 88 87 92 91 86 87 91 89 88 87 91 93 96 94 96 103 114 111 101
278 281 282 289 291 292 300 309 321 324 309 327 334 316 312 316 309 318 322 337 63 26 42 62 74 76 91 89 93 94 90 90 97 83 79 80 85 89 95 96 95 102 104 104
273 277 273 281 286 286 291 301 306 300 309 317 319 318 319 311 308 321 319 323 337 2 21 48 72 86 93 102 99 89 89 106 97 83 72 67 68 71 78 84 90 88 82 77
266 271 275 279 282 285 301 298 283 296 308 316 319 320 322 317 314 306 320 325 342 357 6 31 65 81 80 100 106 102 98 94 79 82 82 69 60 60 59 62 64 70 75 74
269 269 275 270 282 290 297 304 314 302 303 309 319 329 337 329 317 315 315 310 317 331 347 2 32 54 73 101 112 114 111 83 78 71 70 68 60 54 43 43 51 62 59 56
274 269 274 278 279 280 282 288 294 301 306 302 311 318 329 324 323 317 308 300 302 311 320 327 341 358 52 100 130 132 42 61 68 77 91 89 70 59 46 41 32 28 31 37
273 267 271 278 281 286 280 280 285 288 292 296 300 303 307 310 308 312 301 296 293 297 304 309 310 316 312 314 268 254 8 0 5 7 15 48 68 75 62 18 5 14 22 13
267 270 269 278 285 279 280 282 284 284 287 291 293 296 301 299 302 300 298 293 289 289 294 298 298 303 308 307 304 303 298 298 304 303 314 314 318 325 328 332 328 327 327 327